Regional Weather Roundup
Issued by NWS Burlington, VT

Home | Current Version | Previous Version | Text Only | Print | Product List | Glossary On
Versions: 1 2 3 4 5 6 7 8 9 10 11 12 13 14 15 16 17 18 19 20 21 22 23 24 25 26 27 28 29 30 31 32 33 34 35 36 37 38 39 40 41 42 43 44 45 46 47 48 49 50
000
ASUS41 KBTV 310030
RWRBTV
VERMONT REGIONAL WEATHER ROUNDUP
NATIONAL WEATHER SERVICE BURLINGTON VT
800 PM EDT TUE AUG 30 2016

NOTE: "FAIR" INDICATES FEW OR NO CLOUDS BELOW 12,000 FEET WITH NO
SIGNIFICANT WEATHER AND/OR OBSTRUCTIONS TO VISIBILITY.

* THESE REPORTS ARE NOT UNDER NWS QUALITY CONTROL AND/OR DO NOT
  REPORT WEATHER SUCH AS PRECIPITATION AND FOG.

VTZ001>019-310100-
_____VERMONT_____


CITY           SKY/WX    TMP DP  RH WIND       PRES   REMARKS
BURLINGTON     CLOUDY    74  57  55 S5        30.01S
6HR MIN TEMP:  74; 6HR MAX TEMP:  79;

MONTPELIER     MOCLDY    64  59  83 CALM      30.08F
6HR MIN TEMP:  64; 6HR MAX TEMP:  74;

MORRISVILLE    CLOUDY    65  61  87 CALM      30.05S
6HR MIN TEMP:  65; 6HR MAX TEMP:  75;

ST. JOHNSBURY*   N/A     67  61  81 MISG      30.03R
6HR MIN TEMP:  67; 6HR MAX TEMP:  76;

LYNDONVILLE*   CLOUDY    65  59  80 CALM      30.07S
6HR MIN TEMP:  65; 6HR MAX TEMP:  74;

MIDDLEBURY*    FAIR      67  60  77 CALM      30.02S
6HR MIN TEMP:  69; 6HR MAX TEMP:  77;

RUTLAND*       PTCLDY    68  60  75 SE6       30.05F
6HR MIN TEMP:  68; 6HR MAX TEMP:  77;

SPRINGFIELD    PTCLDY    68  58  70 N5        30.05S
6HR MIN TEMP:  68; 6HR MAX TEMP:  80;

HIGHGATE*      MOCLDY    69  62  79 S3        29.99F
6HR MIN TEMP:  68; 6HR MAX TEMP:  77;

NEWPORT*       CLOUDY    64  58  80 SW5       30.04S
6HR MIN TEMP:  65; 6HR MAX TEMP:  73;

BENNINGTON     CLEAR     65  61  87 CALM      30.06S FOG
6HR MIN TEMP:  65; 6HR MAX TEMP:  78;

SUTTON*          N/A     61 N/A N/A MISG        N/A
GALLUP MILLS*    N/A     61 N/A N/A MISG        N/A
UNION VILLAGE*   N/A     66 N/A N/A MISG        N/A
MT. MANSFIELD*   N/A     57 N/A N/A NW23        N/A

_____LAKE CHAMPLAIN_____


CITY           SKY/WX    TMP DP  RH WIND       PRES   REMARKS
BURTON ISLAND*   N/A     73  63  68 SE7         N/A
COLCHESTER RF*   N/A     75  66  73 S7          N/A
DIAMOND ISL*     N/A     75  63  64 SW1         N/A

$$

NYZ007-026>031-035-052-083-087-310100-
_____NORTHERN NEW YORK_____


CITY           SKY/WX    TMP DP  RH WIND       PRES   REMARKS
PLATTSBURGH    CLOUDY    70  64  81 CALM      30.00S
6HR MIN TEMP:  69; 6HR MAX TEMP:  76;

SARANAC LAKE   MOCLDY    67  58  72 W3        30.06S
6HR MIN TEMP:  67; 6HR MAX TEMP:  75;

MASSENA        CLOUDY    71  60  68 S5        29.98F
6HR MIN TEMP:  71; 6HR MAX TEMP:  78;

OGDENSBURG*    PTCLDY    72  61  68 SW6       29.98S
POTSDAM*       CLEAR     72  63  73 SW5       30.00S
STARK FALLS*     N/A    N/A N/A N/A S5          N/A
WATERTOWN      CLEAR     71  58  63 S6        30.01F
6HR MIN TEMP:  70; 6HR MAX TEMP:  81;

FT DRUM        PTCLDY    72  59  63 SW7       30.02F
6HR MIN TEMP:  72; 6HR MAX TEMP:  80;

ALBANY         PTCLDY    73  59  61 CALM      30.03F
6HR MIN TEMP:  72; 6HR MAX TEMP:  82;

GLENS FALLS    CLEAR     73  58  59 SW7       30.02S
6HR MIN TEMP:  73; 6HR MAX TEMP:  80;


$$
NHZ002-005-011-310100-
_____NEW HAMPSHIRE_____


CITY           SKY/WX    TMP DP  RH WIND       PRES   REMARKS
LEBANON        PTCLDY    66  59  78 CALM      30.03S
6HR MIN TEMP:  66; 6HR MAX TEMP:  81;

KEENE          CLEAR     66  59  78 CALM      30.05S
6HR MIN TEMP:  66; 6HR MAX TEMP:  80;

MT WASHINGTON  FOG       46  46 100 W39G46      N/A  VSB 1/16
6HR MIN TEMP:  45; 6HR MAX TEMP:  53;

PLYMOUTH       FAIR      64  61  90 CALM      30.04S
6HR MIN TEMP:  65; 6HR MAX TEMP:  78;

WHITEFIELD     CLOUDY    65  59  81 CALM      30.06R
6HR MIN TEMP:  64; 6HR MAX TEMP:  76;


$$

_____REGIONAL QUEBEC LOCATIONS_____


CITY           SKY/WX    TMP DP  RH WIND       PRES   REMARKS
MONTREAL       CLOUDY    75  63  64 S18       29.96F
QUEBEC CITY    LGT RAIN  66  61  82 SW3       29.97S
SHERBROOKE     CLOUDY    66  59  77 S3        30.01S

_____REGIONAL ONTARIO LOCATIONS_____


CITY           SKY/WX    TMP DP  RH WIND       PRES   REMARKS
OTTAWA         MOCLDY    70  63  78 S6        29.96F

______KEY______
VSB  - VISIBILITY IN MILES
WCI  - WIND CHILL INDEX
HX   - HEAT INDEX
$$
NNNN




USA.gov is the U.S. government's official web portal to all federal, state and local government web resources and services.